Location: Elk Horn Observatory
(36.6768°N, 80.8309°W)
Time: 04:41:31
(UTC-04:00)

Envisat - Pass Details

Date: 28 January 2019
Orbit: 764 x 766 km, 98.2° (Epoch: 22 April)

Event Time Altitude Azimuth Distance (km) Brightness Sun altitude
Rises 18:04:07 0° 129° (SE) 3,217 5.9 -4.5°
Reaches altitude 10° 18:06:54 10° 114° (ESE) 2,295 5.0 -5.0°
Maximum altitude 18:10:36 21° 67° (ENE) 1,675 4.2 -5.7°
Drops below altitude 10° 18:14:18 10° 19° (NNE) 2,306 5.1 -6.4°
Sets 18:17:07 0° 4° (N) 3,237 6.0 -7.0°
